W2GM Weather Reports


time (UTC)temp
C
wind
direction
speed
KPH
gust
KPH
rain 1hr
cm
rain 24hr
cm
rain mn
cm
humidity
%
barometer
mb
20260505223452 26 135 1.6 16.1 0.00 0.00 0.00 37 1007.3
20260505223353 26 122 1.6 16.1 0.00 0.00 0.00 37 1007.4
20260505223252 26 169 1.6 8.0 0.00 0.00 0.00 37 1007.4
20260505223152 26 161 1.6 6.4 0.00 0.00 0.00 37 1007.4
20260505223108 26 161 1.6 8.0 0.00 0.00 0.00 37 1007.4
20260505222853 26 190 1.6 8.0 0.00 0.00 0.00 36 1007.4
20260505222752 26 197 1.6 8.0 0.00 0.00 0.00 37 1007.4
20260505222652 26 197 1.6 8.0 0.00 0.00 0.00 37 1007.4
20260505222552 26 137 1.6 8.0 0.00 0.00 0.00 36 1007.4
20260505222450 26 172 3.2 8.0 0.00 0.00 0.00 36 1007.4
20260505222348 26 133 3.2 8.0 0.00 0.00 0.00 36 1007.4
20260505222249 26 211 3.2 8.0 0.00 0.00 0.00 36 1007.4
20260505222150 26 107 3.2 8.0 0.00 0.00 0.00 36 1007.4
20260505222048 26 221 3.2 8.0 0.00 0.00 0.00 36 1007.4
20260505221949 26 208 3.2 8.0 0.00 0.00 0.00 35 1007.4
20260505221847 26 208 3.2 14.5 0.00 0.00 0.00 35 1007.4
20260505221749 26 164 4.8 14.5 0.00 0.00 0.00 36 1007.4
20260505221705 26 210 3.2 14.5 0.00 0.00 0.00 36 1007.4
20260505221448 26 205 4.8 14.5 0.00 0.00 0.00 35 1007.4
20260505221404 26 232 3.2 16.1 0.00 0.00 0.00 35 1007.4
20260505221145 26 123 3.2 16.1 0.00 0.00 0.00 35 1007.5
20260505221047 26 146 3.2 16.1 0.00 0.00 0.00 35 1007.4
20260505220946 26 217 3.2 16.1 0.00 0.00 0.00 36 1007.4
20260505220847 26 139 3.2 16.1 0.00 0.00 0.00 35 1007.3
20260505220746 26 138 3.2 16.1 0.00 0.00 0.00 35 1007.4
20260505220645 26 100 3.2 16.1 0.00 0.00 0.00 35 1007.4
20260505220544 26 225 3.2 16.1 0.00 0.00 0.00 34 1007.4
20260505220445 26 225 3.2 16.1 0.00 0.00 0.00 35 1007.3
20260505220430 26 219 3.2 11.3 0.00 0.00 0.00 35 1007.5
20260505215959 26 219 3.2 12.9 0.00 0.00 0.00 34 1007.4
20260505215742 26 202 3.2 12.9 0.00 0.00 0.00 35 1007.3
20260505215638 26 157 3.2 12.9 0.00 0.00 0.00 35 1007.3
20260505215538 26 156 3.2 12.9 0.00 0.00 0.00 35 1007.4
20260505215439 26 108 3.2 12.9 0.00 0.00 0.00 35 1007.3
20260505215337 26 121 3.2 12.9 0.00 0.00 0.00 35 1007.3
20260505215239 26 182 3.2 16.1 0.00 0.00 0.00 35 1007.3
20260505215155 26 172 3.2 16.1 0.00 0.00 0.00 36 1007.3
20260505214938 26 239 4.8 16.1 0.00 0.00 0.00 35 1007.3
20260505214839 26 186 4.8 17.7 0.00 0.00 0.00 35 1007.3
20260505214738 26 189 4.8 17.7 0.00 0.00 0.00 35 1007.3
20260505214637 26 239 4.8 17.7 0.00 0.00 0.00 35 1007.3
20260505214540 26 302 4.8 17.7 0.00 0.00 0.00 35 1007.3
20260505214439 26 234 4.8 17.7 0.00 0.00 0.00 35 1007.3
20260505214339 26 233 4.8 17.7 0.00 0.00 0.00 35 1007.2
20260505214238 26 236 4.8 17.7 0.00 0.00 0.00 35 1007.3
20260505214139 26 247 4.8 17.7 0.00 0.00 0.00 35 1007.4
20260505214038 26 248 4.8 17.7 0.00 0.00 0.00 35 1007.2
20260505213938 26 227 4.8 17.7 0.00 0.00 0.00 35 1007.4
20260505213838 26 224 3.2 14.5 0.00 0.00 0.00 34 1007.0
20260505213738 26 223 3.2 12.9 0.00 0.00 0.00 36 1007.0
20260505213639 26 245 3.2 11.3 0.00 0.00 0.00 36 1007.2
20260505213538 26 250 3.2 11.3 0.00 0.00 0.00 35 1007.0
20260505213439 26 240 1.6 11.3 0.00 0.00 0.00 36 1007.0
20260505213338 26 244 1.6 11.3 0.00 0.00 0.00 36 1007.0
20260505213239 26 188 1.6 11.3 0.00 0.00 0.00 36 1007.0
20260505213153 26 191 1.6 4.8 0.00 0.00 0.00 35 1007.2
20260505212939 26 148 1.6 4.8 0.00 0.00 0.00 35 1007.0
20260505212838 26 195 1.6 4.8 0.00 0.00 0.00 36 1007.0
20260505212737 26 181 1.6 4.8 0.00 0.00 0.00 37 1007.0
20260505212638 26 182 1.6 4.8 0.00 0.00 0.00 36 1007.0
20260505212538 26 183 1.6 11.3 0.00 0.00 0.00 37 1007.0
20260505212454 26 183 1.6 11.3 0.00 0.00 0.00 36 1006.9
20260505212238 26 205 3.2 11.3 0.00 0.00 0.00 36 1006.9
20260505212138 26 185 3.2 17.7 0.00 0.00 0.00 36 1006.9
20260505212039 26 185 3.2 17.7 0.00 0.00 0.00 35 1006.8
20260505211938 26 185 3.2 17.7 0.00 0.00 0.00 34 1006.8
20260505211837 26 217 4.8 17.7 0.00 0.00 0.00 34 1006.8
20260505211738 26 238 4.8 17.7 0.00 0.00 0.00 34 1006.9
20260505211638 26 238 4.8 17.7 0.00 0.00 0.00 33 1006.8
20260505211555 26 243 3.2 17.7 0.00 0.00 0.00 33 1006.8
20260505211339 27 219 3.2 17.7 0.00 0.00 0.00 33 1006.7
20260505211237 27 210 3.2 17.7 0.00 0.00 0.00 32 1006.6
20260505211139 27 221 3.2 16.1 0.00 0.00 0.00 34 1006.7
20260505211039 27 246 3.2 9.7 0.00 0.00 0.00 34 1006.9
20260505210938 27 147 3.2 9.7 0.00 0.00 0.00 35 1006.9
20260505210838 27 222 3.2 9.7 0.00 0.00 0.00 36 1006.9
20260505210756 27 222 3.2 14.5 0.00 0.00 0.00 35 1006.8
20260505210539 27 202 3.2 14.5 0.00 0.00 0.00 35 1006.8
20260505210438 27 202 4.8 14.5 0.00 0.00 0.00 35 1006.8
20260505210340 27 202 4.8 14.5 0.00 0.00 0.00 36 1006.7
20260505210240 27 192 4.8 14.5 0.00 0.00 0.00 35 1006.8
20260505210139 27 221 4.8 14.5 0.00 0.00 0.00 36 1006.7
20260505210039 27 219 4.8 14.5 0.00 0.00 0.00 35 1006.8
20260505205938 27 218 4.8 14.5 0.00 0.00 0.00 35 1006.8
20260505205838 27 203 4.8 22.5 0.00 0.00 0.00 35 1006.8
20260505205737 27 229 4.8 22.5 0.00 0.00 0.00 35 1006.7
20260505205654 27 232 4.8 22.5 0.00 0.00 0.00 36 1006.8
20260505205439 27 228 4.8 22.5 0.00 0.00 0.00 36 1006.7
20260505205339 27 247 4.8 22.5 0.00 0.00 0.00 35 1006.7
20260505205239 27 200 4.8 22.5 0.00 0.00 0.00 35 1006.6
20260505205137 27 134 4.8 22.5 0.00 0.00 0.00 34 1006.7
20260505205038 27 153 4.8 22.5 0.00 0.00 0.00 36 1006.8
20260505204939 27 221 4.8 22.5 0.00 0.00 0.00 36 1006.7
20260505204840 27 118 4.8 20.9 0.00 0.00 0.00 35 1006.7
20260505204754 27 187 4.8 20.9 0.00 0.00 0.00 35 1006.8
20260505204538 27 199 4.8 20.9 0.00 0.00 0.00 35 1006.9
20260505204510 27 163 4.8 20.9 0.00 0.00 0.00 35 1006.9
20260505204139 27 238 4.8 20.9 0.00 0.00 0.00 36 1006.8
20260505204040 27 234 4.8 20.9 0.00 0.00 0.00 36 1006.8
20260505203937 27 233 4.8 20.9 0.00 0.00 0.00 35 1006.9
20260505203839 27 200 4.8 20.9 0.00 0.00 0.00 36 1006.8
20260505203742 27 132 4.8 20.9 0.00 0.00 0.00 34 1006.8
20260505203727 27 246 4.8 20.9 0.00 0.00 0.00 35 1006.9
20260505203239 27 236 4.8 17.7 0.00 0.00 0.00 35 1006.9
20260505203138 27 236 4.8 17.7 0.00 0.00 0.00 35 1006.8
20260505203038 27 147 4.8 17.7 0.00 0.00 0.00 35 1006.7
20260505202939 27 196 3.2 17.7 0.00 0.00 0.00 35 1006.8
20260505202839 27 197 3.2 17.7 0.00 0.00 0.00 35 1006.8
20260505202737 27 150 3.2 17.7 0.00 0.00 0.00 34 1006.9
20260505202639 27 117 3.2 17.7 0.00 0.00 0.00 34 1006.8
20260505202539 27 124 3.2 17.7 0.00 0.00 0.00 34 1006.9
20260505202440 27 123 3.2 17.7 0.00 0.00 0.00 35 1006.8
20260505202337 27 213 3.2 17.7 0.00 0.00 0.00 35 1007.0
20260505202239 27 241 3.2 17.7 0.00 0.00 0.00 36 1006.9
20260505202137 27 138 3.2 17.7 0.00 0.00 0.00 35 1006.8
20260505202038 27 205 3.2 11.3 0.00 0.00 0.00 35 1007.0
20260505201938 27 125 3.2 11.3 0.00 0.00 0.00 36 1006.9
20260505201838 27 193 3.2 16.1 0.00 0.00 0.00 37 1006.9
20260505201737 27 187 3.2 16.1 0.00 0.00 0.00 37 1006.8
20260505201638 27 121 3.2 16.1 0.00 0.00 0.00 36 1006.9
20260505201539 27 221 4.8 22.5 0.00 0.00 0.00 37 1006.9
20260505201437 27 147 4.8 22.5 0.00 0.00 0.00 39 1007.0
20260505201339 27 182 4.8 22.5 0.00 0.00 0.00 37 1007.0
20260505201239 27 181 4.8 22.5 0.00 0.00 0.00 37 1007.0
20260505201155 27 202 4.8 22.5 0.00 0.00 0.00 37 1006.9
20260505200938 27 126 4.8 22.5 0.00 0.00 0.00 37 1006.9
20260505200839 27 137 4.8 22.5 0.00 0.00 0.00 37 1007.0
20260505200737 27 121 4.8 22.5 0.00 0.00 0.00 38 1007.0
20260505200639 27 148 4.8 22.5 0.00 0.00 0.00 37 1007.0
20260505200538 27 128 4.8 14.5 0.00 0.00 0.00 38 1007.0
20260505200439 27 169 4.8 14.5 0.00 0.00 0.00 38 1007.0
20260505200338 27 242 3.2 14.5 0.00 0.00 0.00 36 1007.0
20260505200237 27 234 3.2 14.5 0.00 0.00 0.00 37 1007.2
20260505200155 27 202 3.2 11.3 0.00 0.00 0.00 37 1007.2
20260505195956 27 272 4.8 11.3 0.00 0.00 0.00 37 1007.2
20260505195737 27 225 4.8 24.1 0.00 0.00 0.00 38 1007.0
20260505195640 27 229 3.2 24.1 0.00 0.00 0.00 39 1007.2
20260505195538 27 191 4.8 24.1 0.00 0.00 0.00 38 1007.2
20260505195439 27 220 4.8 24.1 0.00 0.00 0.00 38 1007.2
20260505195338 27 233 4.8 24.1 0.00 0.00 0.00 37 1007.2
20260505195240 27 215 4.8 24.1 0.00 0.00 0.00 37 1007.3
20260505195139 27 198 4.8 24.1 0.00 0.00 0.00 37 1007.2
20260505195040 27 229 4.8 24.1 0.00 0.00 0.00 36 1007.2
20260505194953 27 119 3.2 24.1 0.00 0.00 0.00 37 1007.2
20260505194739 28 228 3.2 17.7 0.00 0.00 0.00 38 1007.2
20260505194638 28 225 3.2 17.7 0.00 0.00 0.00 37 1007.2
20260505194537 28 232 3.2 17.7 0.00 0.00 0.00 37 1007.0
20260505194438 28 173 3.2 16.1 0.00 0.00 0.00 37 1007.2
20260505194338 28 115 3.2 16.1 0.00 0.00 0.00 37 1007.2
20260505194237 28 205 3.2 14.5 0.00 0.00 0.00 38 1007.3
20260505194137 27 140 3.2 14.5 0.00 0.00 0.00 39 1007.3
20260505194038 27 105 3.2 14.5 0.00 0.00 0.00 38 1007.3
20260505193938 27 238 3.2 14.5 0.00 0.00 0.00 39 1007.3
20260505193839 27 199 3.2 14.5 0.00 0.00 0.00 39 1007.3
20260505193754 27 165 3.2 14.5 0.00 0.00 0.00 40 1007.2
20260505193538 27 177 3.2 14.5 0.00 0.00 0.00 38 1007.2
20260505193437 27 211 3.2 14.5 0.00 0.00 0.00 37 1007.2
20260505193340 27 214 3.2 14.5 0.00 0.00 0.00 37 1007.2
20260505193239 27 225 3.2 11.3 0.00 0.00 0.00 37 1007.3
20260505193138 27 216 3.2 16.1 0.00 0.00 0.00 37 1007.4
20260505193035 27 194 3.2 16.1 0.00 0.00 0.00 37 1007.4
20260505192933 27 229 4.8 16.1 0.00 0.00 0.00 37 1007.2
20260505192835 27 213 4.8 16.1 0.00 0.00 0.00 39 1007.4
20260505192733 27 137 4.8 16.1 0.00 0.00 0.00 39 1007.3
20260505192635 27 254 4.8 16.1 0.00 0.00 0.00 38 1007.5
20260505192536 27 178 4.8 16.1 0.00 0.00 0.00 37 1007.4
20260505192434 27 238 4.8 16.1 0.00 0.00 0.00 37 1007.4
20260505192335 27 157 4.8 16.1 0.00 0.00 0.00 37 1007.3
20260505192251 27 221 4.8 16.1 0.00 0.00 0.00 37 1007.4
20260505192036 27 247 4.8 16.1 0.00 0.00 0.00 37 1007.5
20260505191952 27 200 4.8 17.7 0.00 0.00 0.00 38 1007.3
20260505191735 27 240 4.8 17.7 0.00 0.00 0.00 37 1007.5
20260505191633 27 278 4.8 17.7 0.00 0.00 0.00 38 1007.5
20260505191535 27 234 4.8 17.7 0.00 0.00 0.00 39 1007.5
20260505191451 27 149 4.8 17.7 0.00 0.00 0.00 39 1007.5
20260505191234 27 205 6.4 19.3 0.00 0.00 0.00 37 1007.6
20260505191133 27 159 6.4 19.3 0.00 0.00 0.00 38 1007.5
20260505191034 27 218 6.4 19.3 0.00 0.00 0.00 36 1007.5
20260505190933 27 240 6.4 19.3 0.00 0.00 0.00 36 1007.6
20260505190833 27 233 6.4 19.3 0.00 0.00 0.00 35 1007.7
20260505190731 27 219 4.8 19.3 0.00 0.00 0.00 36 1007.8
20260505190629 27 213 4.8 19.3 0.00 0.00 0.00 35 1007.8
20260505190531 27 212 4.8 19.3 0.00 0.00 0.00 36 1007.8
20260505190431 27 222 6.4 19.3 0.00 0.00 0.00 35 1007.8
20260505190329 28 232 4.8 17.7 0.00 0.00 0.00 36 1007.7
20260505190232 28 225 4.8 14.5 0.00 0.00 0.00 38 1007.7
20260505190129 28 213 4.8 14.5 0.00 0.00 0.00 39 1007.7
20260505190030 27 130 4.8 14.5 0.00 0.00 0.00 38 1007.7
20260505185931 27 143 4.8 14.5 0.00 0.00 0.00 37 1007.7
20260505185844 28 196 4.8 14.5 0.00 0.00 0.00 38 1007.7
20260505185630 27 138 4.8 17.7 0.00 0.00 0.00 37 1007.7
20260505185548 27 176 4.8 17.7 0.00 0.00 0.00 37 1007.8
20260505185330 27 166 4.8 17.7 0.00 0.00 0.00 37 1007.7
20260505185230 28 213 3.2 17.7 0.00 0.00 0.00 38 1007.8
20260505185131 28 227 3.2 17.7 0.00 0.00 0.00 37 1007.8
20260505185033 28 216 3.2 17.7 0.00 0.00 0.00 38 1007.7
20260505185017 28 227 3.2 17.7 0.00 0.00 0.00 38 1007.9
20260505184522 28 214 3.2 24.1 0.00 0.00 0.00 39 1007.8
20260505184423 28 134 3.2 24.1 0.00 0.00 0.00 40 1007.8
20260505184322 28 201 3.2 24.1 0.00 0.00 0.00 40 1007.8
20260505184222 28 209 3.2 24.1 0.00 0.00 0.00 39 1007.9
20260505184122 28 209 3.2 24.1 0.00 0.00 0.00 40 1007.9
20260505184031 28 227 3.2 24.1 0.00 0.00 0.00 40 1007.7
20260505184014 27 217 3.2 24.1 0.00 0.00 0.00 39 1007.9
20260505183519 27 232 4.8 11.3 0.00 0.00 0.00 39 1008.0
20260505183420 27 232 4.8 12.9 0.00 0.00 0.00 39 1008.1
20260505183320 27 227 4.8 12.9 0.00 0.00 0.00 40 1008.0
20260505183238 27 186 4.8 12.9 0.00 0.00 0.00 40 1008.2
20260505183020 27 232 4.8 12.9 0.00 0.00 0.00 40 1008.1
20260505182917 27 140 3.2 12.9 0.00 0.00 0.00 40 1008.1
20260505182816 27 119 3.2 12.9 0.00 0.00 0.00 39 1008.1
20260505182717 27 224 3.2 12.9 0.00 0.00 0.00 40 1008.1
20260505182617 27 236 3.2 12.9 0.00 0.00 0.00 40 1008.1
20260505182518 27 248 3.2 12.9 0.00 0.00 0.00 39 1008.2
20260505182417 27 133 4.8 19.3 0.00 0.00 0.00 41 1008.2
20260505182315 27 199 3.2 19.3 0.00 0.00 0.00 41 1008.2
20260505182218 27 130 3.2 19.3 0.00 0.00 0.00 42 1008.1
20260505182116 27 112 4.8 19.3 0.00 0.00 0.00 41 1008.1
20260505182015 27 131 4.8 19.3 0.00 0.00 0.00 40 1008.1
20260505181917 27 140 4.8 19.3 0.00 0.00 0.00 40 1008.2
20260505181818 27 109 4.8 19.3 0.00 0.00 0.00 39 1008.2
20260505181734 27 225 4.8 19.3 0.00 0.00 0.00 39 1008.2
20260505181517 27 212 4.8 19.3 0.00 0.00 0.00 42 1008.2
20260505181413 27 111 4.8 19.3 0.00 0.00 0.00 41 1008.1
20260505181311 27 210 4.8 19.3 0.00 0.00 0.00 41 1008.1
20260505181223 27 205 4.8 19.3 0.00 0.00 0.00 41 1008.1
20260505181007 27 169 4.8 19.3 0.00 0.00 0.00 41 1008.1
20260505180908 27 98 4.8 19.3 0.00 0.00 0.00 41 1008.2
20260505180807 27 107 3.2 14.5 0.00 0.00 0.00 43 1008.2
20260505180709 27 117 4.8 14.5 0.00 0.00 0.00 42 1008.3
20260505180607 27 246 4.8 14.5 0.00 0.00 0.00 41 1008.2
20260505180507 27 214 4.8 27.4 0.00 0.00 0.00 40 1008.3
20260505180426 27 240 4.8 27.4 0.00 0.00 0.00 40 1008.1
20260505180207 28 240 4.8 27.4 0.00 0.00 0.00 39 1008.4
20260505180107 28 218 4.8 27.4 0.00 0.00 0.00 40 1008.3
20260505180007 28 167 3.2 27.4 0.00 0.00 0.00 40 1008.3
20260505175904 28 240 3.2 27.4 0.00 0.00 0.00 40 1008.2
20260505175805 28 190 3.2 27.4 0.00 0.00 0.00 40 1008.2
20260505175705 28 209 3.2 27.4 0.00 0.00 0.00 39 1008.4
20260505175604 28 219 3.2 27.4 0.00 0.00 0.00 39 1008.1
20260505175504 28 153 1.6 14.5 0.00 0.00 0.00 39 1008.1
20260505175406 28 190 3.2 14.5 0.00 0.00 0.00 42 1008.1
20260505175305 28 105 3.2 14.5 0.00 0.00 0.00 45 1008.3
20260505175204 27 109 1.6 14.5 0.00 0.00 0.00 45 1008.3
20260505175103 27 121 3.2 14.5 0.00 0.00 0.00 45 1008.3
20260505175002 27 121 3.2 14.5 0.00 0.00 0.00 45 1008.3
20260505174901 27 121 3.2 16.1 0.00 0.00 0.00 44 1008.3
20260505174802 27 116 4.8 16.1 0.00 0.00 0.00 47 1008.2
20260505174720 27 111 4.8 16.1 0.00 0.00 0.00 46 1008.3
20260505174504 27 182 4.8 16.1 0.00 0.00 0.00 45 1008.4
20260505174402 27 194 4.8 16.1 0.00 0.00 0.00 44 1008.4
20260505174302 27 157 4.8 16.1 0.00 0.00 0.00 43 1008.4
20260505174202 27 161 4.8 16.1 0.00 0.00 0.00 44 1008.5
20260505174101 27 148 4.8 16.1 0.00 0.00 0.00 43 1008.4
20260505174001 27 136 3.2 16.1 0.00 0.00 0.00 43 1008.6
20260505173902 27 130 3.2 11.3 0.00 0.00 0.00 43 1008.5
20260505173800 27 215 3.2 11.3 0.00 0.00 0.00 45 1008.6
20260505173700 27 233 3.2 11.3 0.00 0.00 0.00 43 1008.5
20260505173600 27 234 3.2 11.3 0.00 0.00 0.00 42 1008.6
20260505173459 27 225 3.2 9.7 0.00 0.00 0.00 43 1008.5
20260505173400 27 219 3.2 9.7 0.00 0.00 0.00 45 1008.6
20260505173259 27 190 3.2 9.7 0.00 0.00 0.00 45 1008.5
20260505173159 27 190 3.2 9.7 0.00 0.00 0.00 47 1008.4
20260505173058 27 222 3.2 9.7 0.00 0.00 0.00 46 1008.5
20260505172955 27 232 3.2 12.9 0.00 0.00 0.00 45 1008.6
20260505172854 27 236 3.2 12.9 0.00 0.00 0.00 45 1008.6
20260505172755 27 236 3.2 14.5 0.00 0.00 0.00 44 1008.6
20260505172653 27 236 3.2 14.5 0.00 0.00 0.00 46 1008.7
20260505172553 27 184 3.2 14.5 0.00 0.00 0.00 44 1008.7
20260505172455 27 178 3.2 14.5 0.00 0.00 0.00 45 1008.7
20260505172352 27 134 3.2 14.5 0.00 0.00 0.00 44 1008.8
20260505172253 27 109 3.2 14.5 0.00 0.00 0.00 45 1008.7
20260505172153 27 194 3.2 14.5 0.00 0.00 0.00 44 1008.7
20260505172123 27 134 3.2 14.5 0.00 0.00 0.00 44 1008.7
20260505171748 26 250 3.2 17.7 0.00 0.00 0.00 48 1008.8
20260505171649 26 149 3.2 17.7 0.00 0.00 0.00 48 1008.8
20260505171545 26 89 3.2 17.7 0.00 0.00 0.00 48 1008.7
20260505171445 26 219 3.2 17.7 0.00 0.00 0.00 47 1008.8
20260505171400 26 219 3.2 17.7 0.00 0.00 0.00 47 1008.8
20260505171142 26 105 3.2 17.7 0.00 0.00 0.00 48 1008.9
20260505171041 26 105 3.2 17.7 0.00 0.00 0.00 47 1008.9
20260505170941 26 243 4.8 17.7 0.00 0.00 0.00 46 1008.9
20260505170841 26 243 3.2 17.7 0.00 0.00 0.00 47 1008.8
20260505170739 26 238 3.2 16.1 0.00 0.00 0.00 48 1008.8
20260505170638 26 246 3.2 16.1 0.00 0.00 0.00 46 1008.9
20260505170539 26 147 3.2 16.1 0.00 0.00 0.00 46 1009.0
20260505170436 26 186 3.2 16.1 0.00 0.00 0.00 46 1009.0
20260505170335 26 188 3.2 16.1 0.00 0.00 0.00 46 1009.0
20260505170236 26 225 3.2 16.1 0.00 0.00 0.00 45 1008.9
20260505170136 26 225 3.2 16.1 0.00 0.00 0.00 46 1008.9
20260505170036 26 238 1.6 16.1 0.00 0.00 0.00 47 1008.9
20260505165936 26 185 1.6 11.3 0.00 0.00 0.00 47 1009.0
20260505165835 26 213 3.2 11.3 0.00 0.00 0.00 46 1009.0
20260505165736 26 213 3.2 11.3 0.00 0.00 0.00 46 1009.0
20260505165650 26 179 3.2 11.3 0.00 0.00 0.00 46 1009.0
20260505165435 26 228 3.2 11.3 0.00 0.00 0.00 47 1009.1
20260505165335 26 123 3.2 12.9 0.00 0.00 0.00 49 1009.1
20260505165236 26 186 3.2 12.9 0.00 0.00 0.00 48 1009.0
20260505165131 26 157 3.2 12.9 0.00 0.00 0.00 49 1009.0
20260505165031 26 126 3.2 12.9 0.00 0.00 0.00 49 1009.0
20260505164929 26 109 3.2 12.9 0.00 0.00 0.00 47 1009.1
20260505164902 26 192 3.2 12.9 0.00 0.00 0.00 50 1009.1
20260505164527 26 248 3.2 16.1 0.00 0.00 0.00 48 1009.1
20260505164427 26 252 3.2 16.1 0.00 0.00 0.00 49 1009.2
20260505164341 26 138 3.2 16.1 0.00 0.00 0.00 48 1009.1
20260505164123 26 225 3.2 16.1 0.00 0.00 0.00 51 1009.2
20260505164024 26 229 3.2 16.1 0.00 0.00 0.00 49 1009.2
20260505163921 26 229 3.2 16.1 0.00 0.00 0.00 48 1009.2
20260505163822 26 228 3.2 16.1 0.00 0.00 0.00 48 1009.2
20260505163722 26 244 1.6 11.3 0.00 0.00 0.00 50 1009.3
20260505163638 26 244 1.6 11.3 0.00 0.00 0.00 47 1009.2
20260505163424 26 240 1.6 8.0 0.00 0.00 0.00 49 1009.3
20260505163323 26 241 3.2 8.0 0.00 0.00 0.00 52 1009.3
20260505163220 25 241 3.2 8.0 0.00 0.00 0.00 49 1009.3
20260505163120 25 241 3.2 8.0 0.00 0.00 0.00 49 1009.3
20260505163021 25 241 3.2 8.0 0.00 0.00 0.00 49 1009.4
20260505162920 25 241 3.2 12.9 0.00 0.00 0.00 50 1009.4
20260505162820 25 169 3.2 12.9 0.00 0.00 0.00 50 1009.3
20260505162720 25 167 3.2 12.9 0.00 0.00 0.00 50 1009.4
20260505162619 25 238 3.2 12.9 0.00 0.00 0.00 49 1009.4
20260505162521 25 245 3.2 12.9 0.00 0.00 0.00 50 1009.4
20260505162419 25 150 3.2 12.9 0.00 0.00 0.00 51 1009.5
20260505162318 25 125 3.2 12.9 0.00 0.00 0.00 50 1009.5
20260505162216 25 193 3.2 12.9 0.00 0.00 0.00 50 1009.5
20260505162115 25 159 3.2 12.9 0.00 0.00 0.00 50 1009.5
20260505162016 25 109 3.2 12.9 0.00 0.00 0.00 51 1009.5
20260505161915 25 128 3.2 8.0 0.00 0.00 0.00 51 1009.5
20260505161811 25 243 3.2 8.0 0.00 0.00 0.00 50 1009.5
20260505161714 25 242 3.2 8.0 0.00 0.00 0.00 50 1009.5
20260505161611 25 242 3.2 8.0 0.00 0.00 0.00 50 1009.5
20260505161512 25 238 3.2 8.0 0.00 0.00 0.00 50 1009.5
20260505161411 25 252 3.2 8.0 0.00 0.00 0.00 52 1009.6
20260505161310 25 253 3.2 11.3 0.00 0.00 0.00 50 1009.6
20260505161207 25 234 3.2 11.3 0.00 0.00 0.00 49 1009.6
20260505161116 25 231 1.6 11.3 0.00 0.00 0.00 51 1009.6
20260505161008 25 231 1.6 11.3 0.00 0.00 0.00 51 1009.6
20260505160907 25 232 1.6 11.3 0.00 0.00 0.00 50 1009.7
20260505160805 25 232 1.6 11.3 0.00 0.00 0.00 50 1009.7
20260505160705 25 235 1.6 11.3 0.00 0.00 0.00 50 1009.6
20260505160604 25 243 1.6 11.3 0.00 0.00 0.00 50 1009.7
20260505160504 25 244 1.6 11.3 0.00 0.00 0.00 50 1009.7
20260505160401 25 242 1.6 9.7 0.00 0.00 0.00 50 1009.6
20260505160302 25 135 1.6 9.7 0.00 0.00 0.00 50 1009.7
20260505160201 25 199 1.6 9.7 0.00 0.00 0.00 51 1009.6
20260505153151 24 150 3.2 9.7 0.00 0.00 0.00 54 1010.1
20260505153051 24 120 1.6 9.7 0.00 0.00 0.00 54 1010.1
20260505152950 24 187 1.6 6.4 0.00 0.00 0.00 53 1010.1
20260505152851 24 151 1.6 6.4 0.00 0.00 0.00 53 1010.1
20260505152748 23 152 1.6 6.4 0.00 0.00 0.00 54 1010.1
20260505152647 23 155 1.6 6.4 0.00 0.00 0.00 55 1010.1
20260505152549 23 113 1.6 6.4 0.00 0.00 0.00 54 1010.2
20260505152446 23 134 1.6 6.4 0.00 0.00 0.00 56 1010.1
20260505152345 23 91 1.6 6.4 0.00 0.00 0.00 58 1010.2
20260505152243 23 215 1.6 6.4 0.00 0.00 0.00 55 1010.2
20260505152143 23 211 1.6 6.4 0.00 0.00 0.00 58 1010.1
20260505152044 23 205 1.6 6.4 0.00 0.00 0.00 57 1010.1
20260505151941 23 205 1.6 6.4 0.00 0.00 0.00 55 1010.2
20260505151841 23 196 1.6 6.4 0.00 0.00 0.00 56 1010.2
20260505151740 23 169 1.6 6.4 0.00 0.00 0.00 57 1010.2
20260505151639 23 169 1.6 6.4 0.00 0.00 0.00 57 1010.2
20260505151540 23 121 1.6 6.4 0.00 0.00 0.00 57 1010.2
20260505151440 23 119 1.6 6.4 0.00 0.00 0.00 58 1010.2
20260505151337 23 143 1.6 4.8 0.00 0.00 0.00 57 1010.2
20260505151237 23 144 1.6 4.8 0.00 0.00 0.00 58 1010.2
20260505151136 23 142 1.6 4.8 0.00 0.00 0.00 59 1010.2
20260505151035 23 130 1.6 6.4 0.00 0.00 0.00 59 1010.2
20260505150934 23 130 1.6 6.4 0.00 0.00 0.00 57 1010.2
20260505150831 23 130 1.6 6.4 0.00 0.00 0.00 59 1010.3
20260505150733 23 151 1.6 6.4 0.00 0.00 0.00 58 1010.3
20260505150631 23 151 1.6 6.4 0.00 0.00 0.00 59 1010.3
20260505150531 23 205 1.6 6.4 0.00 0.00 0.00 58 1010.2
20260505150431 23 153 1.6 11.3 0.00 0.00 0.00 59 1010.3
20260505150333 22 153 1.6 11.3 0.00 0.00 0.00 59 1010.3
20260505150247 22 146 1.6 11.3 0.00 0.00 0.00 58 1010.2
20260505140603 20 246 3.2 16.1 0.00 0.00 0.00 66 1010.9
20260505140501 20 246 3.2 16.1 0.00 0.00 0.00 66 1010.9
20260505140401 20 250 3.2 16.1 0.00 0.00 0.00 67 1010.9
20260505140334 20 178 3.2 16.1 0.00 0.00 0.00 67 1010.9
20260505130240 18 230 1.6 8.0 0.00 0.00 0.00 69 1010.7
20260505130155 18 239 1.6 8.0 0.00 0.00 0.00 71 1010.6
20260505125030 17 240 1.6 6.4 0.00 0.00 0.00 72 1010.7
20260505124930 17 240 1.6 6.4 0.00 0.00 0.00 72 1010.7
20260505124830 17 240 1.6 6.4 0.00 0.00 0.00 72 1010.7
20260505124729 17 239 1.6 6.4 0.00 0.00 0.00 73 1010.7
20260505124629 17 230 1.6 6.4 0.00 0.00 0.00 73 1010.7
20260505124526 17 230 1.6 6.4 0.00 0.00 0.00 73 1010.7
20260505124425 17 229 1.6 4.8 0.00 0.00 0.00 73 1010.5
20260505124326 17 229 1.6 4.8 0.00 0.00 0.00 74 1010.5
20260505124243 17 229 0.0 4.8 0.00 0.00 0.00 74 1010.4
20260505124021 17 229 0.0 4.8 0.00 0.00 0.00 74 1010.4
20260505123924 16 229 0.0 4.8 0.00 0.00 0.00 74 1010.3
20260505123835 16 229 0.0 4.8 0.00 0.00 0.00 75 1010.4
20260505123622 16 229 0.0 3.2 0.00 0.00 0.00 76 1010.3
20260505123518 16 229 1.6 4.8 0.00 0.00 0.00 76 1010.3
20260505123433 16 229 1.6 4.8 0.00 0.00 0.00 76 1010.2
20260505123216 16 229 1.6 4.8 0.00 0.00 0.00 77 1010.2
20260505123117 16 229 1.6 4.8 0.00 0.00 0.00 77 1010.2
20260505123030 16 229 1.6 4.8 0.00 0.00 0.00 77 1010.2
20260505122813 16 229 1.6 4.8 0.00 0.00 0.00 77 1010.3
20260505122713 16 229 1.6 4.8 0.00 0.00 0.00 76 1010.2
20260505122627 16 229 1.6 4.8 0.00 0.00 0.00 76 1010.3
20260505122425 16 229 1.6 4.8 0.00 0.00 0.00 77 1010.3
20260505122207 16 229 1.6 4.8 0.00 0.00 0.00 78 1010.4
20260505122107 16 229 0.0 4.8 0.00 0.00 0.00 78 1010.4
20260505122006 15 229 0.0 4.8 0.00 0.00 0.00 78 1010.4
20260505121907 15 229 0.0 4.8 0.00 0.00 0.00 79 1010.4
20260505121808 15 229 0.0 4.8 0.00 0.00 0.00 78 1010.4
20260505121708 15 229 0.0 4.8 0.00 0.00 0.00 79 1010.4
20260505121606 15 229 0.0 4.8 0.00 0.00 0.00 79 1010.4
20260505121506 15 229 0.0 4.8 0.00 0.00 0.00 80 1010.4
20260505121417 15 229 0.0 4.8 0.00 0.00 0.00 79 1010.4
20260505121234 15 225 0.0 0.0 0.00 0.00 0.00 81 1010.4
20260505120903 15 226 0.0 0.0 0.00 0.00 0.00 82 1010.4
20260505120804 15 226 0.0 0.0 0.00 0.00 0.00 82 1010.4
20260505120748 15 226 0.0 0.0 0.00 0.00 0.00 82 1010.4
20260505120304 15 226 0.0 0.0 0.00 0.00 0.00 81 1010.4
20260505120218 15 226 0.0 0.0 0.00 0.00 0.00 81 1010.4
20260505120004 15 226 0.0 0.0 0.00 0.00 0.00 82 1010.5
20260505115903 15 226 0.0 0.0 0.00 0.00 0.00 82 1010.5
20260505115803 15 226 0.0 3.2 0.00 0.00 0.00 82 1010.5
20260505115659 15 226 0.0 3.2 0.00 0.00 0.00 82 1010.5
20260505115630 14 226 0.0 3.2 0.00 0.00 0.00 83 1010.5
20260505115257 14 226 0.0 3.2 0.00 0.00 0.00 83 1010.5
20260505115157 14 226 0.0 3.2 0.00 0.00 0.00 83 1010.6
20260505115054 14 226 0.0 3.2 0.00 0.00 0.00 83 1010.5
20260505114955 14 226 0.0 3.2 0.00 0.00 0.00 83 1010.6
20260505114855 14 226 0.0 3.2 0.00 0.00 0.00 84 1010.6
20260505114756 14 226 0.0 0.0 0.00 0.00 0.00 84 1010.5
20260505114657 14 226 0.0 0.0 0.00 0.00 0.00 84 1010.5
20260505114556 14 226 0.0 0.0 0.00 0.00 0.00 84 1010.5
20260505114454 13 226 0.0 0.0 0.00 0.00 0.00 84 1010.6
20260505114407 13 226 0.0 1.6 0.00 0.00 0.00 85 1010.6
20260505114150 13 226 0.0 1.6 0.00 0.00 0.00 85 1010.6
20260505114050 13 226 0.0 1.6 0.00 0.00 0.00 85 1010.5
20260505113947 13 226 0.0 1.6 0.00 0.00 0.00 85 1010.5
20260505113903 13 226 0.0 1.6 0.00 0.00 0.00 85 1010.5
20260505113647 13 226 0.0 1.6 0.00 0.00 0.00 85 1010.5
20260505113548 13 226 0.0 1.6 0.00 0.00 0.00 85 1010.6
20260505113447 13 226 0.0 1.6 0.00 0.00 0.00 85 1010.5
20260505113348 13 226 0.0 1.6 0.00 0.00 0.00 85 1010.5
20260505113304 13 226 0.0 1.6 0.00 0.00 0.00 85 1010.5
20260505113047 13 226 0.0 1.6 0.00 0.00 0.00 85 1010.5
20260505112949 13 226 0.0 1.6 0.00 0.00 0.00 85 1010.5
20260505112901 13 226 0.0 1.6 0.00 0.00 0.00 85 1010.5
20260505112646 13 226 0.0 1.6 0.00 0.00 0.00 85 1010.5
20260505112548 13 226 0.0 1.6 0.00 0.00 0.00 85 1010.6
20260505112447 13 226 0.0 1.6 0.00 0.00 0.00 85 1010.6
20260505112349 13 226 0.0 1.6 0.00 0.00 0.00 85 1010.5
20260505112248 13 226 0.0 1.6 0.00 0.00 0.00 85 1010.5
20260505112147 13 226 0.0 1.6 0.00 0.00 0.00 85 1010.6
20260505112047 13 226 0.0 1.6 0.00 0.00 0.00 85 1010.6
20260505111947 13 226 0.0 1.6 0.00 0.00 0.00 85 1010.6
20260505111846 13 226 0.0 1.6 0.00 0.00 0.00 85 1010.5
20260505111746 13 226 0.0 1.6 0.00 0.00 0.00 85 1010.5
20260505111646 13 226 0.0 1.6 0.00 0.00 0.00 85 1010.5
20260505111544 13 226 0.0 1.6 0.00 0.00 0.00 85 1010.5
20260505111446 13 226 0.0 1.6 0.00 0.00 0.00 85 1010.5
20260505111345 13 226 0.0 1.6 0.00 0.00 0.00 85 1010.6
20260505111246 13 226 0.0 1.6 0.00 0.00 0.00 85 1010.5
20260505111200 13 226 0.0 0.0 0.00 0.00 0.00 85 1010.5
20260505110947 13 226 0.0 0.0 0.00 0.00 0.00 85 1010.6
20260505110846 13 226 0.0 0.0 0.00 0.00 0.00 85 1010.5
20260505110744 13 226 0.0 0.0 0.00 0.00 0.00 85 1010.4
20260505110645 13 226 0.0 0.0 0.00 0.00 0.00 85 1010.4
20260505110544 13 226 0.0 0.0 0.00 0.00 0.00 85 1010.4
20260505110447 13 226 0.0 3.2 0.00 0.00 0.00 85 1010.3
20260505110344 13 226 0.0 3.2 0.00 0.00 0.00 85 1010.4
20260505110300 13 226 0.0 3.2 0.00 0.00 0.00 85 1010.4
20260505102046 13 225 1.6 6.4 0.00 0.00 0.00 80 1010.3
20260505101944 13 211 0.0 4.8 0.00 0.00 0.00 80 1010.4
20260505101846 13 210 0.0 4.8 0.00 0.00 0.00 79 1010.3
20260505101746 13 210 0.0 4.8 0.00 0.00 0.00 79 1010.5
20260505101646 13 210 0.0 4.8 0.00 0.00 0.00 79 1010.4
20260505101602 13 206 0.0 3.2 0.00 0.00 0.00 79 1010.4
20260505101347 13 206 0.0 3.2 0.00 0.00 0.00 79 1010.2
20260505101246 13 206 0.0 1.6 0.00 0.00 0.00 79 1010.3
20260505101144 13 206 0.0 1.6 0.00 0.00 0.00 78 1010.3
20260505101045 13 206 0.0 0.0 0.00 0.00 0.00 78 1010.3
20260505100944 13 206 0.0 0.0 0.00 0.00 0.00 78 1010.3
20260505100846 13 206 0.0 0.0 0.00 0.00 0.00 78 1010.3
20260505100745 13 206 0.0 0.0 0.00 0.00 0.00 78 1010.3
20260505100645 13 206 0.0 0.0 0.00 0.00 0.00 78 1010.2
20260505100546 13 206 0.0 0.0 0.00 0.00 0.00 78 1010.2
20260505100446 12 206 0.0 1.6 0.00 0.00 0.00 78 1010.2
20260505100345 12 206 0.0 3.2 0.00 0.00 0.00 78 1010.2
20260505100247 12 206 0.0 3.2 0.00 0.00 0.00 78 1010.2
20260505100146 12 206 0.0 3.2 0.00 0.00 0.00 78 1010.1
20260505100100 12 206 0.0 3.2 0.00 0.00 0.00 78 1010.0
20260505095845 12 206 0.0 3.2 0.00 0.00 0.00 78 1010.0
20260505095746 12 206 0.0 3.2 0.00 0.00 0.00 78 1010.0
20260505095645 12 206 0.0 3.2 0.00 0.00 0.00 78 1010.0
20260505095545 12 206 0.0 3.2 0.00 0.00 0.00 78 1010.0
20260505095446 12 206 0.0 3.2 0.00 0.00 0.00 78 1009.9
20260505095345 12 206 0.0 4.8 0.00 0.00 0.00 78 1009.9
20260505095246 12 206 0.0 4.8 0.00 0.00 0.00 78 1009.9
20260505095201 12 206 0.0 4.8 0.00 0.00 0.00 78 1010.0
20260505094944 12 206 0.0 4.8 0.00 0.00 0.00 78 1009.9
20260505094846 12 206 0.0 4.8 0.00 0.00 0.00 78 1009.9
20260505094747 12 206 0.0 4.8 0.00 0.00 0.00 78 1010.0
20260505094647 12 206 0.0 4.8 0.00 0.00 0.00 78 1010.0
20260505094546 12 206 0.0 4.8 0.00 0.00 0.00 78 1009.9
20260505094446 12 206 0.0 4.8 0.00 0.00 0.00 78 1009.9
20260505094345 12 205 0.0 4.8 0.00 0.00 0.00 78 1009.9
20260505094244 12 205 0.0 4.8 0.00 0.00 0.00 78 1009.9
20260505094145 12 205 0.0 4.8 0.00 0.00 0.00 78 1010.0
20260505094045 12 205 1.6 4.8 0.00 0.00 0.00 78 1009.9
20260505093945 12 205 1.6 6.4 0.00 0.00 0.00 78 1010.0
20260505093845 12 205 1.6 6.4 0.00 0.00 0.00 78 1009.9
20260505093745 12 205 1.6 6.4 0.00 0.00 0.00 78 1009.9
20260505093645 12 204 0.0 6.4 0.00 0.00 0.00 78 1009.9
20260505093556 12 196 0.0 6.4 0.00 0.00 0.00 78 1009.9
20260505093543 12 196 0.0 6.4 0.00 0.00 0.00 78 1009.9
20260505092946 12 183 0.0 1.6 0.00 0.00 0.00 78 1009.8
20260505092845 12 183 0.0 4.8 0.00 0.00 0.00 78 1009.7
20260505092746 12 183 0.0 4.8 0.00 0.00 0.00 78 1009.7
20260505092700 12 182 0.0 4.8 0.00 0.00 0.00 78 1009.8
20260505092445 12 182 0.0 4.8 0.00 0.00 0.00 79 1009.8
20260505092402 12 182 0.0 4.8 0.00 0.00 0.00 78 1009.7
20260505092145 12 182 0.0 4.8 0.00 0.00 0.00 79 1009.8
20260505092100 12 182 0.0 4.8 0.00 0.00 0.00 79 1009.8
20260505091844 12 160 0.0 1.6 0.00 0.00 0.00 79 1009.7
20260505091745 12 160 0.0 1.6 0.00 0.00 0.00 79 1009.7
20260505091646 12 160 0.0 1.6 0.00 0.00 0.00 79 1009.7
20260505091545 12 160 0.0 1.6 0.00 0.00 0.00 79 1009.7
20260505091447 12 160 0.0 1.6 0.00 0.00 0.00 79 1009.6
20260505091345 12 160 0.0 1.6 0.00 0.00 0.00 79 1009.5
20260505091246 12 160 0.0 1.6 0.00 0.00 0.00 79 1009.5
20260505091144 12 160 0.0 1.6 0.00 0.00 0.00 79 1009.5
20260505091040 12 160 0.0 1.6 0.00 0.00 0.00 79 1009.6
20260505090956 12 160 0.0 1.6 0.00 0.00 0.00 79 1009.6
20260505090740 12 159 0.0 1.6 0.00 0.00 0.00 79 1009.6
20260505090642 12 157 0.0 0.0 0.00 0.00 0.00 80 1009.5
20260505090542 12 157 0.0 0.0 0.00 0.00 0.00 79 1009.5
20260505090457 12 157 0.0 0.0 0.00 0.00 0.00 79 1009.5
20260505090242 12 157 0.0 0.0 0.00 0.00 0.00 79 1009.5
20260505090138 12 157 0.0 0.0 0.00 0.00 0.00 79 1009.5
20260505090038 12 157 0.0 0.0 0.00 0.00 0.00 79 1009.5
20260505085938 12 157 0.0 0.0 0.00 0.00 0.00 79 1009.5
20260505085835 12 157 0.0 0.0 0.00 0.00 0.00 79 1009.5
20260505085733 12 157 0.0 0.0 0.00 0.00 0.00 79 1009.5
20260505085648 12 157 0.0 0.0 0.00 0.00 0.00 79 1009.5
20260505085433 12 157 0.0 0.0 0.00 0.00 0.00 79 1009.5
20260505085333 12 157 0.0 0.0 0.00 0.00 0.00 79 1009.5
20260505085236 12 157 0.0 0.0 0.00 0.00 0.00 79 1009.5
20260505085134 12 157 0.0 0.0 0.00 0.00 0.00 79 1009.4
20260505085035 12 157 0.0 0.0 0.00 0.00 0.00 79 1009.4
20260505084933 12 157 0.0 0.0 0.00 0.00 0.00 79 1009.4
20260505084831 12 157 0.0 0.0 0.00 0.00 0.00 79 1009.4
20260505084730 12 157 0.0 0.0 0.00 0.00 0.00 79 1009.4
20260505084629 12 157 0.0 0.0 0.00 0.00 0.00 79 1009.3
20260505084603 12 157 0.0 0.0 0.00 0.00 0.00 79 1009.3
20260505084229 12 157 0.0 0.0 0.00 0.00 0.00 79 1009.3
20260505084128 12 157 0.0 0.0 0.00 0.00 0.00 79 1009.3
20260505084024 12 157 0.0 1.6 0.00 0.00 0.00 79 1009.3
20260505083942 12 157 0.0 1.6 0.00 0.00 0.00 80 1009.3
20260505083723 12 157 0.0 3.2 0.00 0.00 0.00 80 1009.4
20260505083640 12 157 0.0 3.2 0.00 0.00 0.00 80 1009.4
20260505083422 12 157 0.0 3.2 0.00 0.00 0.00 80 1009.3
20260505083321 12 157 0.0 3.2 0.00 0.00 0.00 80 1009.4
20260505083222 12 157 0.0 3.2 0.00 0.00 0.00 80 1009.4
20260505083121 12 157 0.0 3.2 0.00 0.00 0.00 80 1009.4
20260505083022 12 157 0.0 3.2 0.00 0.00 0.00 81 1009.4
20260505082922 12 157 0.0 3.2 0.00 0.00 0.00 81 1009.4
20260505082823 12 157 0.0 3.2 0.00 0.00 0.00 81 1009.4
20260505082721 12 157 0.0 3.2 0.00 0.00 0.00 81 1009.4
20260505082623 12 148 0.0 3.2 0.00 0.00 0.00 81 1009.4
20260505082521 12 147 0.0 3.2 0.00 0.00 0.00 82 1009.4
20260505082438 12 147 0.0 3.2 0.00 0.00 0.00 81 1009.4
20260505082221 11 146 0.0 1.6 0.00 0.00 0.00 82 1009.5
20260505082121 11 135 0.0 1.6 0.00 0.00 0.00 82 1009.5
20260505082020 11 134 0.0 0.0 0.00 0.00 0.00 82 1009.5
20260505081918 11 134 0.0 0.0 0.00 0.00 0.00 82 1009.5
20260505081818 11 134 0.0 0.0 0.00 0.00 0.00 82 1009.5
20260505081718 11 134 0.0 0.0 0.00 0.00 0.00 83 1009.5
20260505081618 11 134 0.0 0.0 0.00 0.00 0.00 83 1009.5
20260505081518 11 134 0.0 0.0 0.00 0.00 0.00 83 1009.4
20260505081417 11 134 0.0 0.0 0.00 0.00 0.00 83 1009.4
20260505081317 11 123 0.0 0.0 0.00 0.00 0.00 83 1009.5
20260505081213 11 123 0.0 0.0 0.00 0.00 0.00 83 1009.5
20260505081112 11 123 0.0 0.0 0.00 0.00 0.00 83 1009.5
20260505081014 11 123 0.0 0.0 0.00 0.00 0.00 83 1009.5
20260505080914 11 123 0.0 0.0 0.00 0.00 0.00 83 1009.5
20260505080814 11 123 0.0 0.0 0.00 0.00 0.00 83 1009.5
20260505080710 11 123 0.0 0.0 0.00 0.00 0.00 84 1009.5
20260505080610 11 123 0.0 0.0 0.00 0.00 0.00 84 1009.5
20260505080552 11 123 0.0 0.0 0.00 0.00 0.00 84 1009.5
20260505080106 11 123 0.0 0.0 0.00 0.00 0.00 84 1009.5
20260505080005 11 123 0.0 0.0 0.00 0.00 0.00 84 1009.6
20260505075925 11 123 0.0 0.0 0.00 0.00 0.00 84 1009.6
20260505075753 11 123 0.0 0.0 0.00 0.00 0.00 85 1009.6
20260505075330 11 123 0.0 0.0 0.00 0.00 0.00 85 1009.5
20260505074959 11 123 0.0 0.0 0.00 0.00 0.00 86 1009.5
20260505074912 11 123 0.0 0.0 0.00 0.00 0.00 86 1009.5
20260505074656 11 123 0.0 1.6 0.00 0.00 0.00 86 1009.5
20260505074612 10 123 0.0 1.6 0.00 0.00 0.00 86 1009.4
20260505074356 10 123 0.0 1.6 0.00 0.00 0.00 86 1009.4
20260505074252 10 123 0.0 1.6 0.00 0.00 0.00 87 1009.4
20260505074154 10 123 0.0 1.6 0.00 0.00 0.00 87 1009.5
20260505074053 10 123 0.0 1.6 0.00 0.00 0.00 87 1009.5
20260505073953 10 123 0.0 1.6 0.00 0.00 0.00 87 1009.4
20260505073848 10 123 0.0 1.6 0.00 0.00 0.00 87 1009.5
20260505073746 10 123 0.0 0.0 0.00 0.00 0.00 87 1009.5
20260505073646 10 123 0.0 0.0 0.00 0.00 0.00 87 1009.5
20260505073547 10 123 0.0 0.0 0.00 0.00 0.00 87 1009.5
20260505073444 10 123 0.0 0.0 0.00 0.00 0.00 87 1009.4
20260505073343 10 123 0.0 0.0 0.00 0.00 0.00 87 1009.4
20260505073243 10 123 0.0 0.0 0.00 0.00 0.00 87 1009.4
20260505073142 10 123 0.0 0.0 0.00 0.00 0.00 87 1009.4
20260505073042 10 123 0.0 0.0 0.00 0.00 0.00 87 1009.4
20260505073009 10 123 0.0 0.0 0.00 0.00 0.00 87 1009.4
20260505072638 10 123 0.0 0.0 0.00 0.00 0.00 87 1009.4
20260505072536 10 123 0.0 0.0 0.00 0.00 0.00 87 1009.4
20260505072437 10 123 0.0 0.0 0.00 0.00 0.00 87 1009.4
20260505072342 10 123 0.0 0.0 0.00 0.00 0.00 87 1009.4
20260505072236 10 123 0.0 0.0 0.00 0.00 0.00 87 1009.4
20260505072134 10 123 0.0 0.0 0.00 0.00 0.00 87 1009.3
20260505072033 10 123 0.0 0.0 0.00 0.00 0.00 87 1009.3
20260505071933 10 123 0.0 0.0 0.00 0.00 0.00 87 1009.4
20260505071831 10 123 0.0 0.0 0.00 0.00 0.00 87 1009.3
20260505071730 10 123 0.0 0.0 0.00 0.00 0.00 87 1009.3
20260505071631 10 123 0.0 0.0 0.00 0.00 0.00 87 1009.3
20260505071530 10 123 0.0 0.0 0.00 0.00 0.00 87 1009.3
20260505071443 10 123 0.0 0.0 0.00 0.00 0.00 87 1009.3
20260505071228 10 123 0.0 0.0 0.00 0.00 0.00 87 1009.3
20260505071128 10 123 0.0 0.0 0.00 0.00 0.00 87 1009.3
20260505071025 10 123 0.0 0.0 0.00 0.00 0.00 86 1009.3
20260505070924 10 123 0.0 0.0 0.00 0.00 0.00 87 1009.3
20260505070825 10 123 0.0 0.0 0.00 0.00 0.00 86 1009.3
20260505070722 10 123 0.0 0.0 0.00 0.00 0.00 86 1009.4
20260505070624 9 123 0.0 0.0 0.00 0.00 0.00 86 1009.4
20260505070520 9 123 0.0 0.0 0.00 0.00 0.00 86 1009.4
20260505070420 9 123 0.0 0.0 0.00 0.00 0.00 86 1009.4
20260505070334 9 123 0.0 0.0 0.00 0.00 0.00 86 1009.4
20260505070117 9 123 0.0 0.0 0.00 0.00 0.00 86 1009.4
20260505070015 9 123 0.0 0.0 0.00 0.00 0.00 86 1009.4
20260505065916 9 123 0.0 0.0 0.00 0.00 0.00 86 1009.5
20260505065815 9 123 0.0 0.0 0.00 0.00 0.00 85 1009.4
20260505065714 9 123 0.0 0.0 0.00 0.00 0.00 85 1009.4
20260505065614 9 123 0.0 0.0 0.00 0.00 0.00 85 1009.4
20260505065511 9 123 0.0 0.0 0.00 0.00 0.00 85 1009.4
20260505065412 9 123 0.0 0.0 0.00 0.00 0.00 85 1009.4
20260505065310 9 123 0.0 0.0 0.00 0.00 0.00 85 1009.4
20260505065210 9 123 0.0 0.0 0.00 0.00 0.00 85 1009.4
20260505065123 9 123 0.0 0.0 0.00 0.00 0.00 85 1009.5
20260505064906 9 123 0.0 0.0 0.00 0.00 0.00 85 1009.5
20260505064807 9 123 0.0 0.0 0.00 0.00 0.00 85 1009.5
20260505064705 9 123 0.0 0.0 0.00 0.00 0.00 85 1009.6
20260505064605 9 123 0.0 0.0 0.00 0.00 0.00 85 1009.5
20260505064532 9 123 0.0 0.0 0.00 0.00 0.00 85 1009.5
20260505064201 9 123 0.0 0.0 0.00 0.00 0.00 85 1009.5
20260505064114 9 123 0.0 0.0 0.00 0.00 0.00 85 1009.5
20260505063912 9 123 0.0 0.0 0.00 0.00 0.00 85 1009.5
20260505063656 9 123 0.0 0.0 0.00 0.00 0.00 85 1009.6
20260505063558 9 123 0.0 0.0 0.00 0.00 0.00 85 1009.6
20260505063456 9 123 0.0 0.0 0.00 0.00 0.00 85 1009.6
20260505063356 9 123 0.0 0.0 0.00 0.00 0.00 85 1009.6
20260505063258 9 123 0.0 0.0 0.00 0.00 0.00 85 1009.6
20260505063157 9 123 0.0 0.0 0.00 0.00 0.00 85 1009.7
20260505063110 9 123 0.0 0.0 0.00 0.00 0.00 85 1009.6
20260505062856 9 123 0.0 0.0 0.00 0.00 0.00 85 1009.6
20260505062810 9 123 0.0 0.0 0.00 0.00 0.00 85 1009.6
20260505062555 9 123 0.0 0.0 0.00 0.00 0.00 84 1009.6
20260505062455 9 123 0.0 0.0 0.00 0.00 0.00 84 1009.7
20260505062356 9 123 0.0 0.0 0.00 0.00 0.00 84 1009.7
20260505062308 9 123 0.0 0.0 0.00 0.00 0.00 84 1009.7
20260505062050 9 123 0.0 0.0 0.00 0.00 0.00 84 1009.7
20260505061951 9 123 0.0 0.0 0.00 0.00 0.00 84 1009.7
20260505061850 9 123 0.0 0.0 0.00 0.00 0.00 84 1009.7
20260505061749 9 123 0.0 0.0 0.00 0.00 0.00 84 1009.7
20260505061650 9 123 0.0 0.0 0.00 0.00 0.00 84 1009.7
20260505061547 9 123 0.0 0.0 0.00 0.00 0.00 84 1009.7
20260505061449 9 123 0.0 0.0 0.00 0.00 0.00 84 1009.7
20260505061400 9 123 0.0 0.0 0.00 0.00 0.00 84 1009.7
20260505061145 10 123 0.0 0.0 0.00 0.00 0.00 84 1009.8
20260505061058 10 123 0.0 0.0 0.00 0.00 0.00 84 1009.8
20260505060841 10 123 0.0 0.0 0.00 0.00 0.00 84 1009.7
20260505060741 10 123 0.0 0.0 0.00 0.00 0.00 83 1009.7
20260505060641 10 123 0.0 0.0 0.00 0.00 0.00 83 1009.7
20260505060540 10 123 0.0 0.0 0.00 0.00 0.00 83 1009.7
20260505060509 10 123 0.0 0.0 0.00 0.00 0.00 83 1009.7
20260505060138 10 123 0.0 0.0 0.00 0.00 0.00 83 1009.7
20260505060034 10 123 0.0 0.0 0.00 0.00 0.00 83 1009.7
20260505055935 10 123 0.0 0.0 0.00 0.00 0.00 83 1009.8
20260505055835 10 123 0.0 0.0 0.00 0.00 0.00 83 1009.7
20260505055732 10 123 0.0 0.0 0.00 0.00 0.00 83 1009.8
20260505055632 10 123 0.0 0.0 0.00 0.00 0.00 83 1009.7
20260505055530 10 123 0.0 0.0 0.00 0.00 0.00 83 1009.7
20260505055433 10 123 0.0 0.0 0.00 0.00 0.00 83 1009.8
20260505055344 10 123 0.0 0.0 0.00 0.00 0.00 83 1009.8
20260505055128 10 123 0.0 0.0 0.00 0.00 0.00 83 1009.7
20260505055029 10 123 0.0 0.0 0.00 0.00 0.00 83 1009.8
20260505054926 10 123 0.0 0.0 0.00 0.00 0.00 83 1009.8
20260505054841 10 123 0.0 0.0 0.00 0.00 0.00 83 1009.8
20260505054625 10 123 0.0 0.0 0.00 0.00 0.00 82 1009.8
20260505054525 10 123 0.0 0.0 0.00 0.00 0.00 82 1009.8
20260505054422 10 123 0.0 0.0 0.00 0.00 0.00 82 1009.8
20260505054321 10 123 0.0 0.0 0.00 0.00 0.00 82 1009.8
20260505054222 10 123 0.0 0.0 0.00 0.00 0.00 82 1009.8
20260505054121 10 123 0.0 0.0 0.00 0.00 0.00 82 1009.9
20260505054035 10 123 0.0 0.0 0.00 0.00 0.00 82 1009.9
20260505053820 10 123 0.0 0.0 0.00 0.00 0.00 82 1009.9
20260505053717 10 123 0.0 0.0 0.00 0.00 0.00 82 1009.9
20260505053630 10 123 0.0 0.0 0.00 0.00 0.00 82 1009.8
20260505053415 10 123 0.0 0.0 0.00 0.00 0.00 82 1009.8
20260505053315 10 123 0.0 0.0 0.00 0.00 0.00 82 1009.8
20260505053212 10 123 0.0 0.0 0.00 0.00 0.00 82 1009.8
20260505053115 10 123 0.0 0.0 0.00 0.00 0.00 82 1009.8
20260505053028 10 123 0.0 0.0 0.00 0.00 0.00 82 1009.8
20260505052810 10 123 0.0 0.0 0.00 0.00 0.00 82 1009.8
20260505052709 10 123 0.0 0.0 0.00 0.00 0.00 82 1009.8
20260505052626 10 123 0.0 0.0 0.00 0.00 0.00 82 1009.9
20260505052407 10 123 0.0 0.0 0.00 0.00 0.00 81 1009.9
20260505052307 10 123 0.0 0.0 0.00 0.00 0.00 81 1009.9
20260505052205 10 123 0.0 0.0 0.00 0.00 0.00 81 1009.9
20260505052106 10 123 0.0 0.0 0.00 0.00 0.00 81 1009.9
20260505052018 10 123 0.0 0.0 0.00 0.00 0.00 81 1009.9
20260505051804 10 123 0.0 0.0 0.00 0.00 0.00 82 1009.9
20260505051700 10 123 0.0 0.0 0.00 0.00 0.00 82 1009.9
20260505051602 10 123 0.0 0.0 0.00 0.00 0.00 81 1009.9
20260505051458 10 123 0.0 0.0 0.00 0.00 0.00 81 1009.9
20260505051413 10 123 0.0 0.0 0.00 0.00 0.00 82 1009.9
20260505051211 10 123 0.0 0.0 0.00 0.00 0.00 82 1009.9
20260505050955 10 123 0.0 0.0 0.00 0.00 0.00 82 1009.8
20260505050855 10 123 0.0 0.0 0.00 0.00 0.00 82 1009.9
20260505050756 10 123 0.0 0.0 0.00 0.00 0.00 82 1009.9
20260505050653 10 123 0.0 0.0 0.00 0.00 0.00 82 1009.8
20260505050554 10 123 0.0 0.0 0.00 0.00 0.00 82 1009.9
20260505050452 10 123 0.0 0.0 0.00 0.00 0.00 82 1009.8
20260505050350 10 123 0.0 0.0 0.00 0.00 0.00 82 1009.9
20260505050252 10 123 0.0 0.0 0.00 0.00 0.00 82 1009.8
20260505050150 10 123 0.0 0.0 0.00 0.00 0.00 82 1009.9
20260505041716 10 123 0.0 0.0 0.00 0.00 0.00 78 1010.1
20260505041617 10 123 0.0 0.0 0.00 0.00 0.00 78 1010.0
20260505041514 10 123 0.0 0.0 0.00 0.00 0.00 78 1010.1
20260505041413 10 123 0.0 0.0 0.00 0.00 0.00 78 1010.1
20260505041312 11 123 0.0 0.0 0.00 0.00 0.00 78 1010.1
20260505041212 11 123 0.0 0.0 0.00 0.00 0.00 78 1010.1
20260505041110 11 123 0.0 0.0 0.00 0.00 0.00 78 1010.1
20260505041011 11 123 0.0 0.0 0.00 0.00 0.00 78 1010.1
20260505040908 11 123 0.0 0.0 0.00 0.00 0.00 78 1010.1
20260505040808 11 123 0.0 0.0 0.00 0.00 0.00 78 1010.1
20260505040709 11 123 0.0 0.0 0.00 0.00 0.00 77 1010.1
20260505040606 11 123 0.0 0.0 0.00 0.00 0.00 78 1010.1
20260505040506 11 123 0.0 0.0 0.00 0.00 0.00 78 1010.1
20260505040404 11 123 0.0 0.0 0.00 0.00 0.00 77 1010.1
20260505040303 11 123 0.0 0.0 0.00 0.00 0.00 77 1010.1
20260505040205 11 123 0.0 0.0 0.00 0.00 0.00 77 1010.0
20260505040103 11 123 0.0 0.0 0.00 0.00 0.00 77 1010.1
20260505040016 11 123 0.0 0.0 0.00 0.00 0.00 77 1010.0
20260505035800 11 123 0.0 0.0 0.00 0.00 0.00 77 1010.0
20260505035658 11 123 0.0 0.0 0.00 0.00 0.00 77 1010.0
20260505035558 11 123 0.0 0.0 0.00 0.00 0.00 76 1010.0
20260505035456 11 123 0.0 0.0 0.00 0.00 0.00 76 1010.0
20260505035357 11 123 0.0 0.0 0.00 0.00 0.00 76 1010.0
20260505035254 11 123 0.0 0.0 0.00 0.00 0.00 76 1010.1
20260505035156 11 123 0.0 0.0 0.00 0.00 0.00 76 1010.1
20260505035054 11 123 0.0 0.0 0.00 0.00 0.00 76 1010.1
20260505034953 11 123 0.0 0.0 0.00 0.00 0.00 75 1010.0
20260505034852 11 123 0.0 0.0 0.00 0.00 0.00 75 1010.0
20260505034753 11 123 0.0 0.0 0.00 0.00 0.00 75 1010.1
20260505034651 11 123 0.0 0.0 0.00 0.00 0.00 75 1010.1
20260505034553 11 123 0.0 0.0 0.00 0.00 0.00 75 1010.1
20260505034449 11 123 0.0 0.0 0.00 0.00 0.00 75 1010.0
20260505034347 11 123 0.0 0.0 0.00 0.00 0.00 74 1010.0
20260505034247 11 123 0.0 0.0 0.00 0.00 0.00 74 1010.0
20260505034148 11 123 0.0 0.0 0.00 0.00 0.00 74 1010.0
20260505034048 11 123 0.0 0.0 0.00 0.00 0.00 75 1010.0
20260505034000 11 123 0.0 0.0 0.00 0.00 0.00 74 1010.0
20260505033745 11 123 0.0 0.0 0.00 0.00 0.00 74 1010.0
20260505033643 11 123 0.0 0.0 0.00 0.00 0.00 74 1010.0
20260505033544 11 123 0.0 0.0 0.00 0.00 0.00 74 1010.1
20260505033442 11 123 0.0 0.0 0.00 0.00 0.00 74 1010.0
20260505033341 11 123 0.0 0.0 0.00 0.00 0.00 74 1010.1
20260505033254 11 123 0.0 0.0 0.00 0.00 0.00 74 1010.1
20260505033039 12 123 0.0 0.0 0.00 0.00 0.00 74 1010.1
20260505032936 12 123 0.0 0.0 0.00 0.00 0.00 74 1010.1
20260505032835 12 123 0.0 0.0 0.00 0.00 0.00 74 1010.1
20260505032737 12 123 0.0 0.0 0.00 0.00 0.00 74 1010.2
20260505032635 12 123 0.0 0.0 0.00 0.00 0.00 74 1010.2
20260505032534 12 123 0.0 0.0 0.00 0.00 0.00 73 1010.2
20260505032432 12 123 0.0 0.0 0.00 0.00 0.00 73 1010.2
20260505032333 12 123 0.0 0.0 0.00 0.00 0.00 73 1010.2
20260505032230 12 123 0.0 0.0 0.00 0.00 0.00 73 1010.2
20260505032130 12 123 0.0 0.0 0.00 0.00 0.00 73 1010.2
20260505032031 12 123 0.0 0.0 0.00 0.00 0.00 73 1010.1
20260505031959 12 123 0.0 0.0 0.00 0.00 0.00 72 1010.1
20260505031628 12 123 0.0 0.0 0.00 0.00 0.00 72 1010.1
20260505031527 12 123 0.0 0.0 0.00 0.00 0.00 72 1010.1
20260505031425 12 123 0.0 0.0 0.00 0.00 0.00 72 1010.2
20260505031325 12 123 0.0 0.0 0.00 0.00 0.00 72 1010.1
20260505031223 12 123 0.0 0.0 0.00 0.00 0.00 72 1010.2
20260505031122 12 123 0.0 0.0 0.00 0.00 0.00 72 1010.2
20260505031022 12 123 0.0 1.6 0.00 0.00 0.00 72 1010.2
20260505030920 12 123 0.0 3.2 0.00 0.00 0.00 72 1010.2
20260505030821 12 123 0.0 3.2 0.00 0.00 0.00 72 1010.2
20260505030719 12 123 0.0 3.2 0.00 0.00 0.00 72 1010.2
20260505030620 12 123 0.0 3.2 0.00 0.00 0.00 71 1010.2
20260505030517 12 123 0.0 3.2 0.00 0.00 0.00 71 1010.2
20260505030416 12 123 0.0 3.2 0.00 0.00 0.00 70 1010.2
20260505030316 12 123 0.0 3.2 0.00 0.00 0.00 70 1010.2
20260505030216 12 123 0.0 3.2 0.00 0.00 0.00 70 1010.2
20260505030114 12 123 0.0 3.2 0.00 0.00 0.00 70 1010.2
20260505030015 12 123 0.0 3.2 0.00 0.00 0.00 70 1010.2
20260505025913 12 123 0.0 1.6 0.00 0.00 0.00 70 1010.2
20260505025826 12 123 0.0 1.6 0.00 0.00 0.00 70 1010.2
20260505025612 12 123 0.0 1.6 0.00 0.00 0.00 70 1010.2
20260505025510 12 123 0.0 1.6 0.00 0.00 0.00 70 1010.2
20260505025410 12 123 0.0 1.6 0.00 0.00 0.00 70 1010.3
20260505025307 13 123 0.0 1.6 0.00 0.00 0.00 70 1010.3
20260505025208 13 123 0.0 1.6 0.00 0.00 0.00 69 1010.3
20260505025106 13 123 0.0 1.6 0.00 0.00 0.00 69 1010.2
20260505025008 13 123 0.0 1.6 0.00 0.00 0.00 69 1010.3
20260505024920 13 123 0.0 3.2 0.00 0.00 0.00 69 1010.3
20260505024703 13 123 0.0 3.2 0.00 0.00 0.00 69 1010.2
20260505024602 13 123 0.0 3.2 0.00 0.00 0.00 69 1010.2
20260505024501 13 123 0.0 3.2 0.00 0.00 0.00 69 1010.2
20260505024401 13 123 0.0 3.2 0.00 0.00 0.00 69 1010.2
20260505024259 13 123 0.0 3.2 0.00 0.00 0.00 69 1010.2
20260505024159 13 123 0.0 3.2 0.00 0.00 0.00 68 1010.2
20260505024100 13 123 0.0 3.2 0.00 0.00 0.00 68 1010.3
20260505023958 13 123 0.0 3.2 0.00 0.00 0.00 68 1010.3
20260505023858 13 123 0.0 1.6 0.00 0.00 0.00 68 1010.3
20260505023758 13 123 0.0 1.6 0.00 0.00 0.00 68 1010.3
20260505023655 13 123 0.0 1.6 0.00 0.00 0.00 68 1010.3
20260505023554 13 123 0.0 1.6 0.00 0.00 0.00 67 1010.4
20260505023454 13 123 0.0 1.6 0.00 0.00 0.00 67 1010.3
20260505023353 13 123 0.0 1.6 0.00 0.00 0.00 67 1010.3
20260505023252 13 123 0.0 3.2 0.00 0.00 0.00 67 1010.3
20260505023151 13 123 0.0 3.2 0.00 0.00 0.00 66 1010.3
20260505023106 13 123 0.0 3.2 0.00 0.00 0.00 66 1010.3
20260505022849 13 123 0.0 3.2 0.00 0.00 0.00 66 1010.3
20260505022748 13 123 0.0 3.2 0.00 0.00 0.00 66 1010.3
20260505022650 13 123 0.0 3.2 0.00 0.00 0.00 66 1010.4
20260505022548 13 123 0.0 3.2 0.00 0.00 0.00 65 1010.4
20260505022519 13 123 0.0 3.2 0.00 0.00 0.00 65 1010.4
20260505022203 13 123 0.0 0.0 0.00 0.00 0.00 65 1010.3
20260505021945 13 123 0.0 0.0 0.00 0.00 0.00 65 1010.3
20260505021844 13 123 0.0 0.0 0.00 0.00 0.00 65 1010.3
20260505021757 13 123 0.0 0.0 0.00 0.00 0.00 64 1010.3
20260505021543 14 123 0.0 0.0 0.00 0.00 0.00 64 1010.3
20260505021440 14 123 0.0 0.0 0.00 0.00 0.00 64 1010.3
20260505021340 14 123 0.0 0.0 0.00 0.00 0.00 64 1010.2
20260505021241 14 123 0.0 0.0 0.00 0.00 0.00 64 1010.2
20260505021138 14 123 0.0 0.0 0.00 0.00 0.00 64 1010.2
20260505021036 14 123 0.0 0.0 0.00 0.00 0.00 64 1010.3
20260505020936 14 123 0.0 0.0 0.00 0.00 0.00 63 1010.3
20260505020837 14 123 0.0 0.0 0.00 0.00 0.00 63 1010.3
20260505020737 14 123 0.0 0.0 0.00 0.00 0.00 63 1010.3
20260505020634 14 123 0.0 0.0 0.00 0.00 0.00 63 1010.3
20260505020535 14 123 0.0 0.0 0.00 0.00 0.00 63 1010.2
20260505020434 14 123 0.0 0.0 0.00 0.00 0.00 63 1010.3
20260505020332 14 123 0.0 0.0 0.00 0.00 0.00 63 1010.3
20260505020234 14 123 0.0 0.0 0.00 0.00 0.00 63 1010.3
20260505020130 15 123 0.0 0.0 0.00 0.00 0.00 62 1010.2
20260505020031 15 123 0.0 0.0 0.00 0.00 0.00 62 1010.3
20260505015928 15 123 0.0 3.2 0.00 0.00 0.00 62 1010.3
20260505015828 15 123 0.0 3.2 0.00 0.00 0.00 62 1010.3
20260505015728 15 123 0.0 3.2 0.00 0.00 0.00 62 1010.2
20260505015626 15 123 0.0 3.2 0.00 0.00 0.00 62 1010.3
20260505015524 15 123 0.0 3.2 0.00 0.00 0.00 62 1010.3
20260505015425 15 123 0.0 3.2 0.00 0.00 0.00 62 1010.2
20260505015325 15 123 0.0 3.2 0.00 0.00 0.00 61 1010.2
20260505015226 15 123 0.0 3.2 0.00 0.00 0.00 61 1010.2
20260505015123 15 123 0.0 3.2 0.00 0.00 0.00 61 1010.2
20260505015036 15 123 0.0 3.2 0.00 0.00 0.00 61 1010.1
20260505014849 15 123 0.0 0.0 0.00 0.00 0.00 61 1010.0
20260505014518 15 123 0.0 0.0 0.00 0.00 0.00 59 1010.0
20260505014416 15 123 0.0 0.0 0.00 0.00 0.00 59 1010.0
20260505014318 15 123 0.0 0.0 0.00 0.00 0.00 59 1010.0
20260505014216 15 123 0.0 0.0 0.00 0.00 0.00 58 1010.0
20260505014115 15 123 0.0 0.0 0.00 0.00 0.00 58 1010.1
20260505014012 15 123 0.0 0.0 0.00 0.00 0.00 58 1010.0
20260505013913 15 123 0.0 0.0 0.00 0.00 0.00 58 1010.0
20260505013812 15 123 0.0 1.6 0.00 0.00 0.00 58 1010.0
20260505013713 15 123 0.0 3.2 0.00 0.00 0.00 57 1010.1
20260505013610 16 123 0.0 3.2 0.00 0.00 0.00 57 1010.0
20260505013511 16 123 0.0 3.2 0.00 0.00 0.00 57 1010.1
20260505013409 16 123 0.0 3.2 0.00 0.00 0.00 57 1010.0
20260505013309 16 123 0.0 3.2 0.00 0.00 0.00 57 1010.0
20260505013209 16 123 0.0 3.2 0.00 0.00 0.00 57 1010.0
20260505013121 16 123 0.0 3.2 0.00 0.00 0.00 57 1010.0
20260505012905 16 123 0.0 3.2 0.00 0.00 0.00 56 1010.0
20260505012805 16 123 0.0 3.2 0.00 0.00 0.00 56 1010.0
20260505012705 16 123 0.0 1.6 0.00 0.00 0.00 56 1010.0
20260505012602 16 123 0.0 1.6 0.00 0.00 0.00 56 1010.0
20260505012501 16 123 0.0 1.6 0.00 0.00 0.00 55 1010.0
20260505012400 16 123 0.0 1.6 0.00 0.00 0.00 55 1010.0
20260505012301 16 123 0.0 1.6 0.00 0.00 0.00 55 1010.0
20260505012214 16 123 0.0 1.6 0.00 0.00 0.00 55 1010.0
20260505011956 16 123 0.0 0.0 0.00 0.00 0.00 54 1009.9
20260505011857 16 123 0.0 0.0 0.00 0.00 0.00 54 1009.9
20260505011756 16 123 0.0 0.0 0.00 0.00 0.00 54 1009.9
20260505011656 16 123 0.0 0.0 0.00 0.00 0.00 54 1009.8
20260505011555 16 123 0.0 0.0 0.00 0.00 0.00 53 1009.9
20260505011454 16 123 0.0 0.0 0.00 0.00 0.00 53 1009.8
20260505011353 16 123 0.0 0.0 0.00 0.00 0.00 53 1009.8
20260505011252 17 123 0.0 0.0 0.00 0.00 0.00 53 1009.8
20260505011152 17 123 0.0 0.0 0.00 0.00 0.00 53 1009.7
20260505011053 17 123 0.0 0.0 0.00 0.00 0.00 52 1009.7
20260505010953 17 123 0.0 0.0 0.00 0.00 0.00 52 1009.7
20260505010852 17 123 0.0 0.0 0.00 0.00 0.00 52 1009.7
20260505010752 17 123 0.0 0.0 0.00 0.00 0.00 52 1009.7
20260505010650 17 123 0.0 1.6 0.00 0.00 0.00 51 1009.7
20260505010548 17 123 0.0 1.6 0.00 0.00 0.00 51 1009.7
20260505010448 17 123 0.0 1.6 0.00 0.00 0.00 51 1009.7
20260505010348 17 123 0.0 1.6 0.00 0.00 0.00 51 1009.7
20260505010245 17 123 0.0 1.6 0.00 0.00 0.00 51 1009.6
20260505010147 17 123 0.0 1.6 0.00 0.00 0.00 51 1009.6
20260505010046 17 123 0.0 1.6 0.00 0.00 0.00 51 1009.6
20260505005946 17 123 0.0 1.6 0.00 0.00 0.00 50 1009.5
20260505005843 17 123 0.0 1.6 0.00 0.00 0.00 50 1009.6
20260505005743 17 123 0.0 1.6 0.00 0.00 0.00 50 1009.5
20260505005643 17 123 0.0 0.0 0.00 0.00 0.00 50 1009.5
20260505005541 17 123 0.0 1.6 0.00 0.00 0.00 50 1009.5
20260505005441 17 123 0.0 1.6 0.00 0.00 0.00 49 1009.5
20260505005341 17 123 0.0 1.6 0.00 0.00 0.00 49 1009.5
20260505005238 17 123 0.0 1.6 0.00 0.00 0.00 49 1009.5
20260505005139 17 123 0.0 1.6 0.00 0.00 0.00 49 1009.5
20260505005052 17 123 0.0 6.4 0.00 0.00 0.00 49 1009.6
20260505004844 17 122 0.0 6.4 0.00 0.00 0.00 49 1009.6
20260505004635 18 122 0.0 6.4 0.00 0.00 0.00 49 1009.5
20260505004602 18 122 0.0 6.4 0.00 0.00 0.00 49 1009.5
20260505004232 18 122 0.0 6.4 0.00 0.00 0.00 49 1009.5
20260505004131 18 122 0.0 6.4 0.00 0.00 0.00 49 1009.5
20260505004029 18 157 0.0 1.6 0.00 0.00 0.00 49 1009.5
20260505003929 18 157 0.0 1.6 0.00 0.00 0.00 48 1009.4
20260505003826 18 157 0.0 1.6 0.00 0.00 0.00 48 1009.5
20260505003726 18 157 0.0 1.6 0.00 0.00 0.00 48 1009.4
20260505003657 18 157 0.0 1.6 0.00 0.00 0.00 48 1009.4
20260505003325 18 159 0.0 0.0 0.00 0.00 0.00 48 1009.4
20260505003226 18 159 0.0 0.0 0.00 0.00 0.00 48 1009.4
20260505003123 18 159 0.0 0.0 0.00 0.00 0.00 48 1009.4
20260505003022 18 159 0.0 0.0 0.00 0.00 0.00 48 1009.4
20260505002920 18 159 0.0 0.0 0.00 0.00 0.00 48 1009.4
20260505002837 18 159 0.0 0.0 0.00 0.00 0.00 47 1009.4
20260505002621 18 159 0.0 0.0 0.00 0.00 0.00 47 1009.4
20260505002521 18 159 0.0 0.0 0.00 0.00 0.00 47 1009.4
20260505002434 18 159 0.0 0.0 0.00 0.00 0.00 47 1009.4
20260505002216 18 158 0.0 0.0 0.00 0.00 0.00 47 1009.3
20260505002118 18 158 0.0 0.0 0.00 0.00 0.00 47 1009.3
20260505002016 18 159 0.0 0.0 0.00 0.00 0.00 47 1009.3
20260505001916 18 159 0.0 0.0 0.00 0.00 0.00 47 1009.3
20260505001831 18 159 0.0 3.2 0.00 0.00 0.00 47 1009.3
20260505001629 18 159 0.0 6.4 0.00 0.00 0.00 46 1009.3
20260505001411 18 159 0.0 6.4 0.00 0.00 0.00 46 1009.2
20260505001311 18 159 0.0 6.4 0.00 0.00 0.00 46 1009.2
20260505001211 18 159 0.0 6.4 0.00 0.00 0.00 46 1009.2
20260505001109 18 159 0.0 6.4 0.00 0.00 0.00 46 1009.2
20260505001009 19 159 0.0 6.4 0.00 0.00 0.00 46 1009.1
20260505000909 19 159 0.0 6.4 0.00 0.00 0.00 46 1009.1
20260505000807 19 159 0.0 6.4 0.00 0.00 0.00 46 1009.1
20260505000707 19 174 0.0 3.2 0.00 0.00 0.00 46 1009.1
20260505000639 19 174 0.0 3.2 0.00 0.00 0.00 46 1009.1
20260505000307 19 175 0.0 4.8 0.00 0.00 0.00 45 1009.0
20260505000207 19 171 0.0 4.8 0.00 0.00 0.00 46 1009.0
20260505000104 19 171 0.0 4.8 0.00 0.00 0.00 45 1009.0
20260505000006 19 188 0.0 4.8 0.00 0.00 0.00 46 1009.0
20260504235902 19 188 0.0 4.8 0.00 0.00 0.00 45 1009.0
20260504235802 19 114 0.0 4.8 0.00 0.00 0.00 45 1008.9
20260504235703 19 114 0.0 6.4 0.00 0.00 0.00 45 1008.9
20260504235600 19 113 0.0 6.4 0.00 0.00 0.00 45 1008.9
20260504235533 19 76 0.0 6.4 0.00 0.00 0.00 45 1008.9
20260504235200 20 76 0.0 6.4 0.00 0.00 0.00 44 1008.9
20260504235059 20 73 0.0 6.4 0.00 0.00 0.00 45 1008.9
20260504235015 20 73 1.6 6.4 0.00 0.00 0.00 45 1008.8
20260504234759 20 73 1.6 6.4 0.00 0.00 0.00 45 1008.8
20260504234659 20 66 1.6 11.3 0.00 0.00 0.00 45 1008.8
20260504234557 20 66 1.6 11.3 0.00 0.00 0.00 44 1008.8
20260504234454 20 66 1.6 11.3 0.00 0.00 0.00 44 1008.7
20260504234355 20 240 1.6 11.3 0.00 0.00 0.00 44 1008.8
20260504234255 20 240 1.6 11.3 0.00 0.00 0.00 45 1008.8
20260504234156 20 119 1.6 11.3 0.00 0.00 0.00 44 1008.7
20260504234053 20 119 1.6 11.3 0.00 0.00 0.00 44 1008.7
20260504233953 20 119 1.6 11.3 0.00 0.00 0.00 44 1008.7
20260504233850 20 163 1.6 11.3 0.00 0.00 0.00 44 1008.6
20260504233752 20 163 0.0 11.3 0.00 0.00 0.00 45 1008.7
20260504233650 20 134 0.0 8.0 0.00 0.00 0.00 45 1008.6
20260504233549 20 134 1.6 8.0 0.00 0.00 0.00 44 1008.6
20260504233446 20 134 1.6 8.0 0.00 0.00 0.00 44 1008.6
20260504233348 20 134 1.6 8.0 0.00 0.00 0.00 44 1008.6
20260504233247 20 134 1.6 8.0 0.00 0.00 0.00 44 1008.6
20260504233146 20 134 1.6 8.0 0.00 0.00 0.00 44 1008.5
20260504233044 20 134 1.6 8.0 0.00 0.00 0.00 43 1008.6
20260504232945 20 134 1.6 8.0 0.00 0.00 0.00 44 1008.5
20260504232843 20 129 1.6 4.8 0.00 0.00 0.00 44 1008.5
20260504232744 20 129 1.6 4.8 0.00 0.00 0.00 44 1008.5
20260504232657 20 101 1.6 4.8 0.00 0.00 0.00 44 1008.4
20260504232442 20 101 1.6 4.8 0.00 0.00 0.00 43 1008.4
20260504232340 20 135 1.6 4.8 0.00 0.00 0.00 44 1008.4
20260504232243 20 182 1.6 4.8 0.00 0.00 0.00 43 1008.4
20260504232138 20 182 1.6 4.8 0.00 0.00 0.00 43 1008.4
20260504232051 20 182 1.6 4.8 0.00 0.00 0.00 43 1008.4
20260504231835 20 182 1.6 4.8 0.00 0.00 0.00 43 1008.4
20260504231735 21 182 1.6 4.8 0.00 0.00 0.00 44 1008.4
20260504231632 21 113 1.6 4.8 0.00 0.00 0.00 42 1008.4
20260504231532 21 113 0.0 4.8 0.00 0.00 0.00 42 1008.4
20260504231433 21 298 1.6 6.4 0.00 0.00 0.00 42 1008.4
20260504231330 21 298 1.6 6.4 0.00 0.00 0.00 42 1008.3
20260504231231 21 177 0.0 6.4 0.00 0.00 0.00 42 1008.3
20260504231128 21 193 0.0 6.4 0.00 0.00 0.00 42 1008.3
20260504231044 21 193 0.0 6.4 0.00 0.00 0.00 42 1008.3
20260504230827 21 197 1.6 6.4 0.00 0.00 0.00 42 1008.2
20260504230727 21 112 1.6 6.4 0.00 0.00 0.00 42 1008.3
20260504230624 21 112 1.6 6.4 0.00 0.00 0.00 42 1008.3
20260504230539 21 112 1.6 6.4 0.00 0.00 0.00 42 1008.2
20260504230324 21 193 1.6 4.8 0.00 0.00 0.00 42 1008.2
20260504230235 21 195 1.6 4.8 0.00 0.00 0.00 42 1008.2
20260504230036 21 194 1.6 4.8 0.00 0.00 0.00 41 1008.2
20260504225818 21 196 1.6 4.8 0.00 0.00 0.00 42 1008.2
20260504225720 21 213 1.6 4.8 0.00 0.00 0.00 42 1008.3
20260504225616 21 213 1.6 4.8 0.00 0.00 0.00 42 1008.2
20260504225550 21 213 1.6 4.8 0.00 0.00 0.00 41 1008.2
20260504225233 21 213 1.6 6.4 0.00 0.00 0.00 41 1008.2
20260504225017 21 214 1.6 9.7 0.00 0.00 0.00 42 1008.2
20260504224917 21 214 3.2 9.7 0.00 0.00 0.00 41 1008.2
20260504224813 21 214 3.2 9.7 0.00 0.00 0.00 41 1008.2
20260504224729 21 122 3.2 9.7 0.00 0.00 0.00 41 1008.2
20260504224532 21 200 3.2 9.7 0.00 0.00 0.00 41 1008.3
20260504224329 21 198 3.2 9.7 0.00 0.00 0.00 40 1008.2
20260504224113 21 248 3.2 9.7 0.00 0.00 0.00 40 1008.3
20260504224014 21 206 3.2 9.7 0.00 0.00 0.00 40 1008.3
20260504223914 21 202 3.2 9.7 0.00 0.00 0.00 40 1008.3
20260504223814 21 154 3.2 11.3 0.00 0.00 0.00 41 1008.3
20260504223712 21 118 3.2 11.3 0.00 0.00 0.00 40 1008.3
20260504223644 22 118 3.2 11.3 0.00 0.00 0.00 39 1008.3